Regional Weather Roundup
Issued by NWS

Home | Current Version | Previous Version | Graphics & Text | Print | Product List | Glossary Off
Versions: 1 2 3 4 5 6 7 8 9 10 11 12 13 14 15 16 17 18 19 20 21 22 23 24 25 26 27 28 29 30 31 32 33 34 35 36 37 38 39 40 41 42 43 44 45 46 47 48 49 50

000
ASUS43 KTOP 271308
RWRKS

WEATHER ROUNDUP FOR KANSAS
NATIONAL WEATHER SERVICE GOODLAND KS
800 AM CDT MON JUL 27 2015

NOTE:  "FAIR" INDICATES FEW OR NO CLOUDS BELOW 12,000 FEET WITH NO
SIGNIFICANT WEATHER AND/OR OBSTRUCTIONS TO VISIBILITY.

KSZ001>006-013>018-027>032-041>047-271400-
NORTHWEST KANSAS

CITY           SKY/WX    TMP DP  RH WIND       PRES   REMARKS
GOODLAND       PTSUNNY   67  64  90 S18G28    29.95R
HAYS           PTSUNNY   72  61  68 S12       29.88R
HILL CITY      PTSUNNY   72  65  78 S7        29.89R
RUSSELL        PTSUNNY   73  68  84 S10       29.86R
$$

KSZ061>065-074>080-084>089-271400-
SOUTHWEST KANSAS

CITY           SKY/WX    TMP DP  RH WIND       PRES   REMARKS
DODGE CITY     PTSUNNY   69  63  81 S10       29.97R
ELKHART          N/A     69  62  78 SE9         N/A
GARDEN CITY    MOSUNNY   68  64  87 S9        29.95R
GREAT BEND     PTSUNNY   72  64  78 S15       29.89S
LIBERAL        SUNNY     72  63  73 SE13      29.99R
PRATT          CLOUDY    72  64  78 S8        29.95S
$$

KSZ066>073-081>083-090>101-271400-
SOUTHEAST KANSAS

CITY           SKY/WX    TMP DP  RH WIND       PRES   REMARKS
CHANUTE        PTSUNNY   78  76  93 MISG      29.95R
COFFEYVILLE    MOSUNNY   79  76  90 S7        29.94S
HUTCHINSON     CLOUDY    74  68  81 SE10      29.91F
MEDICINE LODGE   N/A     75  68  78 CALM      29.94S
NEWTON         CLOUDY    75  64  69 SE8       29.95S
PARSONS        PTSUNNY   80  77  90 S6        29.95S
WICHITA INTL   PTSUNNY   78  69  73 E6        29.92F
WICHITA JABRA  PTSUNNY   77  69  76 E3        29.93F
WICHITA MCCONL PTSUNNY   79  67  67 E6        29.93F
WINFIELD       PTSUNNY   78  72  81 SE8       29.94F
$$

KSZ007>012-019>026-033>040-048>060-102>105-271400-
NORTHEAST KANSAS

CITY           SKY/WX    TMP DP  RH WIND       PRES   REMARKS
CONCORDIA      CLOUDY    73  69  87 SE3       29.84F
EMPORIA        PTSUNNY   77  70  79 CALM      29.93R
LAWRENCE       PTSUNNY   77  73  87 SE3       29.91F
MANHATTAN      CLOUDY    77  70  79 S6        29.87F
MARYSVILLE     CLOUDY    73  70  88 SE3       29.88F
OLATHE IND     CLOUDY    77  74  90 S6        29.94S
OLATHE EXE     CLOUDY    76  73  91 S5        29.93F
SALINA         CLOUDY    74  69  85 SE13      29.84F
TOPEKA BILLARD MOSUNNY   77  74  90 SE3       29.90F
TOPEKA FORBES  MOSUNNY   79  72  79 S3        29.92R
$$



USA.gov is the U.S. government's official web portal to all federal, state and local government web resources and services.